Time,TemperatureF,DewpointF,PressureIn,WindDirection,WindDirectionDegrees,WindSpeedMPH,WindSpeedGustMPH,Humidity,HourlyPrecipIn,Conditions,Clouds,dailyrainin,SoftwareType,DateUTC
2013-02-27 00:00:00,26.8,14.4,26.84,North,0,0.0,0.0,59,0.00,,,0.00,VWS V14.01,2013-02-27 08:00:00,
2013-02-27 00:05:00,26.8,14.4,26.84,North,0,0.0,0.0,59,0.00,,,0.00,VWS V14.01,2013-02-27 08:05:00,
2013-02-27 00:10:00,27.0,14.2,26.84,North,0,0.0,0.0,58,0.00,,,0.00,VWS V14.01,2013-02-27 08:10:00,
2013-02-27 00:15:00,27.3,14.1,26.84,North,0,0.0,0.0,57,0.00,,,0.00,VWS V14.01,2013-02-27 08:15:00,
2013-02-27 00:20:00,27.3,14.1,26.84,North,0,0.0,0.0,57,0.00,,,0.00,VWS V14.01,2013-02-27 08:20:00,
2013-02-27 00:25:00,27.3,14.1,26.84,North,0,0.0,0.0,57,0.00,,,0.00,VWS V14.01,2013-02-27 08:25:00,
2013-02-27 00:30:00,27.3,14.1,26.84,North,0,0.0,0.0,57,0.00,,,0.00,VWS V14.01,2013-02-27 08:30:00,
2013-02-27 00:35:00,27.7,14.0,26.84,North,0,0.0,0.0,56,0.00,,,0.00,VWS V14.01,2013-02-27 08:35:00,
2013-02-27 00:40:00,27.7,14.0,26.84,North,0,0.0,0.0,56,0.00,,,0.00,VWS V14.01,2013-02-27 08:40:00,
2013-02-27 00:45:00,27.7,14.0,26.84,North,0,0.0,0.0,56,0.00,,,0.00,VWS V14.01,2013-02-27 08:45:00,
2013-02-27 00:50:00,27.7,14.0,26.84,North,0,0.0,0.0,56,0.00,,,0.00,VWS V14.01,2013-02-27 08:50:00,
2013-02-27 00:55:00,26.1,12.5,26.84,North,0,0.0,0.0,56,0.00,,,0.00,VWS V14.01,2013-02-27 08:55:00,
2013-02-27 01:00:00,26.1,12.5,26.84,North,0,0.0,0.0,56,0.00,,,0.00,VWS V14.01,2013-02-27 09:00:00,
2013-02-27 01:05:00,26.1,12.5,26.84,North,0,0.0,0.0,56,0.00,,,0.00,VWS V14.01,2013-02-27 09:05:00,
2013-02-27 01:10:00,26.1,12.5,26.84,North,0,0.0,0.0,56,0.00,,,0.00,VWS V14.01,2013-02-27 09:10:00,
2013-02-27 01:15:00,26.1,12.5,26.84,North,0,0.0,0.0,56,0.00,,,0.00,VWS V14.01,2013-02-27 09:15:00,
2013-02-27 01:20:00,24.6,12.0,26.84,North,0,0.0,0.0,58,0.00,,,0.00,VWS V14.01,2013-02-27 09:20:00,
2013-02-27 01:25:00,24.6,12.0,26.84,North,0,0.0,0.0,58,0.00,,,0.00,VWS V14.01,2013-02-27 09:25:00,
2013-02-27 01:30:00,24.4,14.7,26.84,North,0,0.0,0.0,66,0.00,,,0.00,VWS V14.01,2013-02-27 09:30:00,
2013-02-27 01:35:00,24.8,15.1,26.84,North,0,0.0,0.0,66,0.00,,,0.00,VWS V14.01,2013-02-27 09:35:00,
2013-02-27 01:40:00,24.8,15.1,26.84,North,0,0.0,0.0,66,0.00,,,0.00,VWS V14.01,2013-02-27 09:40:00,
2013-02-27 01:45:00,25.0,13.8,26.84,North,0,0.0,0.0,62,0.00,,,0.00,VWS V14.01,2013-02-27 09:45:00,
2013-02-27 01:50:00,25.0,13.8,26.84,North,0,0.0,0.0,62,0.00,,,0.00,VWS V14.01,2013-02-27 09:50:00,
2013-02-27 01:55:00,25.0,13.8,26.84,North,0,0.0,0.0,62,0.00,,,0.00,VWS V14.01,2013-02-27 09:55:00,
2013-02-27 02:00:00,25.0,13.8,26.84,North,0,0.0,0.0,62,0.00,,,0.00,VWS V14.01,2013-02-27 10:00:00,
2013-02-27 02:05:00,24.1,15.4,26.84,North,0,0.0,0.0,69,0.00,,,0.00,VWS V14.01,2013-02-27 10:05:00,
2013-02-27 02:10:00,24.4,15.7,26.84,North,0,0.0,0.0,69,0.00,,,0.00,VWS V14.01,2013-02-27 10:10:00,
2013-02-27 02:15:00,24.4,15.7,26.84,North,0,0.0,0.0,69,0.00,,,0.00,VWS V14.01,2013-02-27 10:15:00,
2013-02-27 02:20:00,24.4,15.7,26.84,North,0,0.0,0.0,69,0.00,,,0.00,VWS V14.01,2013-02-27 10:20:00,
2013-02-27 02:25:00,24.4,15.7,26.84,North,0,0.0,0.0,69,0.00,,,0.00,VWS V14.01,2013-02-27 10:25:00,
2013-02-27 02:30:00,23.7,13.7,26.84,North,0,0.0,0.0,65,0.00,,,0.00,VWS V14.01,2013-02-27 10:30:00,
2013-02-27 02:35:00,23.7,13.7,26.84,North,0,0.0,0.0,65,0.00,,,0.00,VWS V14.01,2013-02-27 10:35:00,
2013-02-27 02:40:00,23.5,13.9,26.84,North,0,0.0,0.0,66,0.00,,,0.00,VWS V14.01,2013-02-27 10:40:00,
2013-02-27 02:45:00,23.7,14.4,26.84,North,0,0.0,0.0,67,0.00,,,0.00,VWS V14.01,2013-02-27 10:45:00,
2013-02-27 02:50:00,23.7,14.4,26.84,North,0,0.0,0.0,67,0.00,,,0.00,VWS V14.01,2013-02-27 10:50:00,
2013-02-27 02:55:00,23.5,14.6,26.84,North,0,0.0,0.0,68,0.00,,,0.00,VWS V14.01,2013-02-27 10:55:00,
2013-02-27 03:00:00,23.5,14.6,26.84,North,0,0.0,0.0,68,0.00,,,0.00,VWS V14.01,2013-02-27 11:00:00,
2013-02-27 03:05:00,23.5,14.6,26.84,North,0,0.0,0.0,68,0.00,,,0.00,VWS V14.01,2013-02-27 11:05:00,
2013-02-27 03:10:00,23.5,14.6,26.84,North,0,0.0,0.0,68,0.00,,,0.00,VWS V14.01,2013-02-27 11:10:00,
2013-02-27 03:15:00,24.1,16.7,26.84,North,0,0.0,0.0,73,0.00,,,0.00,VWS V14.01,2013-02-27 11:15:00,
2013-02-27 03:20:00,24.3,16.5,26.84,North,0,0.0,0.0,72,0.00,,,0.00,VWS V14.01,2013-02-27 11:20:00,
2013-02-27 03:25:00,24.3,16.5,26.84,North,0,0.0,0.0,72,0.00,,,0.00,VWS V14.01,2013-02-27 11:25:00,
2013-02-27 03:30:00,24.3,16.5,26.84,North,0,0.0,0.0,72,0.00,,,0.00,VWS V14.01,2013-02-27 11:30:00,
2013-02-27 03:35:00,24.3,16.5,26.84,North,0,0.0,0.0,72,0.00,,,0.00,VWS V14.01,2013-02-27 11:35:00,
2013-02-27 03:40:00,24.1,16.4,26.84,North,0,0.0,0.0,72,0.00,,,0.00,VWS V14.01,2013-02-27 11:40:00,
2013-02-27 03:45:00,24.1,16.4,26.84,North,0,0.0,0.0,72,0.00,,,0.00,VWS V14.01,2013-02-27 11:45:00,
2013-02-27 03:50:00,24.1,16.4,26.84,North,0,0.0,0.0,72,0.00,,,0.00,VWS V14.01,2013-02-27 11:50:00,
2013-02-27 03:55:00,24.1,16.4,26.84,North,0,0.0,0.0,72,0.00,,,0.00,VWS V14.01,2013-02-27 11:55:00,
2013-02-27 04:00:00,23.9,15.9,26.84,North,0,0.0,0.0,71,0.00,,,0.00,VWS V14.01,2013-02-27 12:00:00,
2013-02-27 04:05:00,23.7,16.0,26.84,North,0,0.0,0.0,72,0.00,,,0.00,VWS V14.01,2013-02-27 12:05:00,
2013-02-27 04:10:00,23.7,16.0,26.84,North,0,0.0,0.0,72,0.00,,,0.00,VWS V14.01,2013-02-27 12:10:00,
2013-02-27 04:15:00,23.7,16.0,26.84,North,0,0.0,0.0,72,0.00,,,0.00,VWS V14.01,2013-02-27 12:15:00,
2013-02-27 04:20:00,23.7,16.0,26.84,North,0,0.0,0.0,72,0.00,,,0.00,VWS V14.01,2013-02-27 12:20:00,
2013-02-27 04:25:00,23.7,16.0,26.81,North,0,0.0,0.0,72,0.00,,,0.00,VWS V14.01,2013-02-27 12:25:00,
2013-02-27 04:30:00,22.8,15.5,26.81,North,0,0.0,0.0,73,0.00,,,0.00,VWS V14.01,2013-02-27 12:30:00,
2013-02-27 04:35:00,23.5,16.2,26.81,North,0,0.0,0.0,73,0.00,,,0.00,VWS V14.01,2013-02-27 12:35:00,
2013-02-27 04:40:00,23.5,16.2,26.81,North,0,0.0,0.0,73,0.00,,,0.00,VWS V14.01,2013-02-27 12:40:00,
2013-02-27 04:45:00,23.5,16.2,26.81,North,0,0.0,0.0,73,0.00,,,0.00,VWS V14.01,2013-02-27 12:45:00,
2013-02-27 04:50:00,24.3,16.9,26.81,North,0,0.0,0.0,73,0.00,,,0.00,VWS V14.01,2013-02-27 12:50:00,
2013-02-27 04:55:00,24.3,16.9,26.81,North,0,0.0,0.0,73,0.00,,,0.00,VWS V14.01,2013-02-27 12:55:00,
2013-02-27 05:00:00,24.3,16.9,26.81,North,0,0.0,0.0,73,0.00,,,0.00,VWS V14.01,2013-02-27 13:00:00,
2013-02-27 05:05:00,23.5,16.8,26.81,North,0,0.0,0.0,75,0.00,,,0.00,VWS V14.01,2013-02-27 13:05:00,
2013-02-27 05:10:00,23.5,16.8,26.81,North,0,0.0,0.0,75,0.00,,,0.00,VWS V14.01,2013-02-27 13:10:00,
2013-02-27 05:15:00,24.1,17.3,26.81,North,0,0.0,0.0,75,0.00,,,0.00,VWS V14.01,2013-02-27 13:15:00,
2013-02-27 05:20:00,24.1,17.3,26.81,North,0,0.0,0.0,75,0.00,,,0.00,VWS V14.01,2013-02-27 13:20:00,
2013-02-27 05:25:00,24.1,17.3,26.84,North,0,0.0,0.0,75,0.00,,,0.00,VWS V14.01,2013-02-27 13:25:00,
2013-02-27 05:30:00,24.1,17.3,26.84,North,0,0.0,0.0,75,0.00,,,0.00,VWS V14.01,2013-02-27 13:30:00,
2013-02-27 05:35:00,24.1,17.0,26.84,North,0,0.0,0.0,74,0.00,,,0.00,VWS V14.01,2013-02-27 13:35:00,
2013-02-27 05:40:00,24.3,17.2,26.84,North,0,0.0,0.0,74,0.00,,,0.00,VWS V14.01,2013-02-27 13:40:00,
2013-02-27 05:45:00,24.3,17.2,26.84,North,0,0.0,0.0,74,0.00,,,0.00,VWS V14.01,2013-02-27 13:45:00,
2013-02-27 05:50:00,24.8,17.7,26.84,North,0,0.0,0.0,74,0.00,,,0.00,VWS V14.01,2013-02-27 13:50:00,
2013-02-27 05:55:00,24.8,17.7,26.84,North,0,0.0,0.0,74,0.00,,,0.00,VWS V14.01,2013-02-27 13:55:00,
2013-02-27 06:00:00,25.2,17.7,26.84,North,0,0.0,0.0,73,0.00,,,0.00,VWS V14.01,2013-02-27 14:00:00,
2013-02-27 06:05:00,25.3,17.9,26.84,North,0,0.0,0.0,73,0.00,,,0.00,VWS V14.01,2013-02-27 14:05:00,
2013-02-27 06:10:00,25.3,17.9,26.84,North,0,0.0,0.0,73,0.00,,,0.00,VWS V14.01,2013-02-27 14:10:00,
2013-02-27 06:15:00,25.3,17.9,26.84,North,0,0.0,0.0,73,0.00,,,0.00,VWS V14.01,2013-02-27 14:15:00,
2013-02-27 06:20:00,25.5,17.8,26.84,North,0,0.0,0.0,72,0.00,,,0.00,VWS V14.01,2013-02-27 14:20:00,
2013-02-27 06:25:00,25.3,17.6,26.84,North,0,0.0,0.0,72,0.00,,,0.00,VWS V14.01,2013-02-27 14:25:00,
2013-02-27 06:30:00,25.3,17.6,26.84,North,0,0.0,0.0,72,0.00,,,0.00,VWS V14.01,2013-02-27 14:30:00,
2013-02-27 06:35:00,25.3,17.6,26.84,North,0,0.0,0.0,72,0.00,,,0.00,VWS V14.01,2013-02-27 14:35:00,
2013-02-27 06:40:00,25.3,17.6,26.84,North,0,0.0,0.0,72,0.00,,,0.00,VWS V14.01,2013-02-27 14:40:00,
2013-02-27 06:45:00,25.3,17.6,26.84,North,0,0.0,0.0,72,0.00,,,0.00,VWS V14.01,2013-02-27 14:45:00,
2013-02-27 06:50:00,25.3,17.6,26.84,North,0,0.0,0.0,72,0.00,,,0.00,VWS V14.01,2013-02-27 14:50:00,
2013-02-27 06:55:00,25.7,18.3,26.84,North,0,0.0,0.0,73,0.00,,,0.00,VWS V14.01,2013-02-27 14:55:00,
2013-02-27 07:00:00,25.7,18.3,26.84,North,0,0.0,0.0,73,0.00,,,0.00,VWS V14.01,2013-02-27 15:00:00,
2013-02-27 07:05:00,25.7,18.3,26.84,North,0,0.0,0.0,73,0.00,,,0.00,VWS V14.01,2013-02-27 15:05:00,
2013-02-27 07:10:00,26.2,18.5,26.84,North,0,0.0,0.0,72,0.00,,,0.00,VWS V14.01,2013-02-27 15:10:00,
2013-02-27 07:15:00,26.2,18.5,26.84,North,0,0.0,0.0,72,0.00,,,0.00,VWS V14.01,2013-02-27 15:15:00,
2013-02-27 07:20:00,26.2,18.5,26.84,North,0,0.0,0.0,72,0.00,,,0.00,VWS V14.01,2013-02-27 15:20:00,
2013-02-27 07:25:00,26.2,18.5,26.84,North,0,0.0,0.0,72,0.00,,,0.00,VWS V14.01,2013-02-27 15:25:00,
2013-02-27 07:30:00,26.2,18.5,26.84,North,0,0.0,0.0,72,0.00,,,0.00,VWS V14.01,2013-02-27 15:30:00,
2013-02-27 07:34:00,27.0,18.5,26.84,North,0,0.0,0.0,70,0.00,,,0.00,VWS V14.01,2013-02-27 15:34:00,
2013-02-27 07:39:00,27.0,18.5,26.84,North,0,0.0,0.0,70,0.00,,,0.00,VWS V14.01,2013-02-27 15:39:00,
2013-02-27 07:44:00,27.0,18.5,26.84,North,0,0.0,0.0,70,0.00,,,0.00,VWS V14.01,2013-02-27 15:44:00,
2013-02-27 07:49:00,27.0,18.5,26.84,North,0,0.0,0.0,70,0.00,,,0.00,VWS V14.01,2013-02-27 15:49:00,
2013-02-27 07:54:00,27.0,18.5,26.84,North,0,0.0,0.0,70,0.00,,,0.00,VWS V14.01,2013-02-27 15:54:00,
2013-02-27 07:59:00,28.6,20.0,26.84,North,0,0.0,0.0,70,0.00,,,0.00,VWS V14.01,2013-02-27 15:59:00,
2013-02-27 08:04:00,28.6,20.0,26.84,North,0,0.0,0.0,70,0.00,,,0.00,VWS V14.01,2013-02-27 16:04:00,
2013-02-27 08:09:00,29.1,19.9,26.84,North,0,0.0,0.0,68,0.00,,,0.00,VWS V14.01,2013-02-27 16:09:00,
2013-02-27 08:14:00,29.1,19.9,26.84,North,0,0.0,0.0,68,0.00,,,0.00,VWS V14.01,2013-02-27 16:14:00,
2013-02-27 08:19:00,29.8,20.2,26.84,North,0,0.0,0.0,67,0.00,,,0.00,VWS V14.01,2013-02-27 16:19:00,
2013-02-27 08:24:00,29.8,19.9,26.84,North,0,0.0,0.0,66,0.00,,,0.00,VWS V14.01,2013-02-27 16:24:00,
2013-02-27 08:29:00,29.8,19.9,26.84,North,0,0.0,0.0,66,0.00,,,0.00,VWS V14.01,2013-02-27 16:29:00,
2013-02-27 08:34:00,29.8,19.9,26.84,North,0,0.0,0.0,66,0.00,,,0.00,VWS V14.01,2013-02-27 16:34:00,
2013-02-27 08:39:00,29.8,19.9,26.84,North,0,0.0,0.0,66,0.00,,,0.00,VWS V14.01,2013-02-27 16:39:00,
2013-02-27 08:44:00,30.0,19.3,26.84,North,0,0.0,0.0,64,0.00,,,0.00,VWS V14.01,2013-02-27 16:44:00,
2013-02-27 08:49:00,30.0,19.3,26.84,North,0,0.0,0.0,64,0.00,,,0.00,VWS V14.01,2013-02-27 16:49:00,
2013-02-27 08:54:00,30.0,19.3,26.84,North,0,0.0,0.0,64,0.00,,,0.00,VWS V14.01,2013-02-27 16:54:00,
2013-02-27 08:59:00,30.0,19.3,26.84,North,0,0.0,0.0,64,0.00,,,0.00,VWS V14.01,2013-02-27 16:59:00,
2013-02-27 09:04:00,30.0,19.3,26.84,North,0,0.0,0.0,64,0.00,,,0.00,VWS V14.01,2013-02-27 17:04:00,
2013-02-27 09:09:00,30.9,19.1,26.84,North,0,0.0,0.0,61,0.00,,,0.00,VWS V14.01,2013-02-27 17:09:00,
2013-02-27 09:14:00,30.9,19.1,26.84,North,0,0.0,0.0,61,0.00,,,0.00,VWS V14.01,2013-02-27 17:14:00,
2013-02-27 09:19:00,32.2,20.3,26.84,North,0,0.0,0.0,61,0.00,,,0.00,VWS V14.01,2013-02-27 17:19:00,
2013-02-27 09:24:00,32.9,20.2,26.84,North,0,0.0,0.0,59,0.00,,,0.00,VWS V14.01,2013-02-27 17:24:00,
2013-02-27 09:29:00,32.9,20.2,26.84,North,0,0.0,0.0,59,0.00,,,0.00,VWS V14.01,2013-02-27 17:29:00,
2013-02-27 09:34:00,33.6,19.6,26.84,North,0,0.0,0.0,56,0.00,,,0.00,VWS V14.01,2013-02-27 17:34:00,
2013-02-27 09:39:00,33.6,19.6,26.84,North,0,0.0,0.0,56,0.00,,,0.00,VWS V14.01,2013-02-27 17:39:00,
2013-02-27 09:44:00,33.6,19.6,26.84,North,0,0.0,0.0,56,0.00,,,0.00,VWS V14.01,2013-02-27 17:44:00,
2013-02-27 09:49:00,33.6,19.6,26.84,North,0,0.0,0.0,56,0.00,,,0.00,VWS V14.01,2013-02-27 17:49:00,
2013-02-27 09:54:00,36.3,20.4,26.84,North,0,0.0,0.0,52,0.00,,,0.00,VWS V14.01,2013-02-27 17:54:00,
2013-02-27 09:59:00,36.5,20.1,26.84,North,0,0.0,0.0,51,0.00,,,0.00,VWS V14.01,2013-02-27 17:59:00,
2013-02-27 10:04:00,36.5,20.1,26.84,North,0,0.0,0.0,51,0.00,,,0.00,VWS V14.01,2013-02-27 18:04:00,
2013-02-27 10:09:00,36.5,20.1,26.84,North,0,0.0,0.0,51,0.00,,,0.00,VWS V14.01,2013-02-27 18:09:00,
2013-02-27 10:14:00,36.5,20.1,26.84,North,0,0.0,0.0,51,0.00,,,0.00,VWS V14.01,2013-02-27 18:14:00,
2013-02-27 10:19:00,38.3,20.8,26.84,North,0,0.0,0.0,49,0.00,,,0.00,VWS V14.01,2013-02-27 18:19:00,
2013-02-27 10:24:00,38.3,20.8,26.84,North,0,0.0,0.0,49,0.00,,,0.00,VWS V14.01,2013-02-27 18:24:00,
2013-02-27 10:29:00,38.3,20.8,26.84,North,0,0.0,0.0,49,0.00,,,0.00,VWS V14.01,2013-02-27 18:29:00,
2013-02-27 10:34:00,38.3,20.8,26.84,North,0,0.0,0.0,49,0.00,,,0.00,VWS V14.01,2013-02-27 18:34:00,
2013-02-27 10:39:00,37.2,19.4,26.84,North,0,0.0,0.0,48,0.00,,,0.00,VWS V14.01,2013-02-27 18:39:00,
2013-02-27 10:44:00,38.1,19.7,26.84,North,0,0.0,0.0,47,0.00,,,0.00,VWS V14.01,2013-02-27 18:44:00,
2013-02-27 10:49:00,38.1,19.7,26.84,North,0,0.0,0.0,47,0.00,,,0.00,VWS V14.01,2013-02-27 18:49:00,
2013-02-27 10:54:00,39.9,18.7,26.84,North,0,0.0,0.0,42,0.00,,,0.00,VWS V14.01,2013-02-27 18:54:00,
2013-02-27 10:59:00,39.9,18.7,26.84,North,0,0.0,0.0,42,0.00,,,0.00,VWS V14.01,2013-02-27 18:59:00,
2013-02-27 11:04:00,42.1,20.1,26.84,North,0,0.0,0.0,41,0.00,,,0.00,VWS V14.01,2013-02-27 19:04:00,
2013-02-27 11:09:00,41.7,19.8,26.84,North,0,0.0,0.0,41,0.00,,,0.00,VWS V14.01,2013-02-27 19:09:00,
2013-02-27 11:14:00,41.4,19.5,26.84,North,0,0.0,0.0,41,0.00,,,0.00,VWS V14.01,2013-02-27 19:14:00,
2013-02-27 11:19:00,41.4,19.5,26.81,North,0,0.0,0.0,41,0.00,,,0.00,VWS V14.01,2013-02-27 19:19:00,
2013-02-27 11:24:00,41.4,19.5,26.81,North,0,0.0,0.0,41,0.00,,,0.00,VWS V14.01,2013-02-27 19:24:00,
2013-02-27 11:29:00,40.6,19.4,26.81,North,0,0.0,0.0,42,0.00,,,0.00,VWS V14.01,2013-02-27 19:29:00,
2013-02-27 11:34:00,40.6,19.4,26.81,North,0,0.0,0.0,42,0.00,,,0.00,VWS V14.01,2013-02-27 19:34:00,
2013-02-27 11:39:00,40.6,19.4,26.81,North,0,0.0,0.0,42,0.00,,,0.00,VWS V14.01,2013-02-27 19:39:00,
2013-02-27 11:44:00,43.3,19.5,26.81,North,0,0.0,0.0,38,0.00,,,0.00,VWS V14.01,2013-02-27 19:44:00,
2013-02-27 11:49:00,42.6,19.4,26.81,North,0,0.0,0.0,39,0.00,,,0.00,VWS V14.01,2013-02-27 19:49:00,
2013-02-27 11:54:00,43.7,19.8,26.81,North,0,0.0,0.0,38,0.00,,,0.00,VWS V14.01,2013-02-27 19:54:00,
2013-02-27 11:59:00,43.7,19.8,26.81,North,0,0.0,0.0,38,0.00,,,0.00,VWS V14.01,2013-02-27 19:59:00,
2013-02-27 12:04:00,45.1,21.1,26.81,North,0,0.0,0.0,38,0.00,,,0.00,VWS V14.01,2013-02-27 20:04:00,
2013-02-27 12:09:00,45.1,21.1,26.81,North,0,0.0,0.0,38,0.00,,,0.00,VWS V14.01,2013-02-27 20:09:00,
2013-02-27 12:14:00,45.7,20.9,26.81,North,0,0.0,0.0,37,0.00,,,0.00,VWS V14.01,2013-02-27 20:14:00,
2013-02-27 12:19:00,45.5,20.8,26.81,North,0,0.0,0.0,37,0.00,,,0.00,VWS V14.01,2013-02-27 20:19:00,
2013-02-27 12:24:00,45.5,20.8,26.81,North,0,0.0,0.0,37,0.00,,,0.00,VWS V14.01,2013-02-27 20:24:00,
2013-02-27 12:29:00,43.2,19.3,26.81,North,0,0.0,0.0,38,0.00,,,0.00,VWS V14.01,2013-02-27 20:29:00,
2013-02-27 12:34:00,43.2,19.3,26.81,North,0,0.0,0.0,38,0.00,,,0.00,VWS V14.01,2013-02-27 20:34:00,
2013-02-27 12:39:00,44.8,20.7,26.81,North,0,0.0,0.0,38,0.00,,,0.00,VWS V14.01,2013-02-27 20:39:00,
2013-02-27 12:44:00,44.8,20.7,26.81,North,0,0.0,0.0,38,0.00,,,0.00,VWS V14.01,2013-02-27 20:44:00,
2013-02-27 12:49:00,44.2,20.3,26.81,North,0,0.0,0.0,38,0.00,,,0.00,VWS V14.01,2013-02-27 20:49:00,
2013-02-27 12:54:00,44.2,20.3,26.81,North,0,0.0,0.0,38,0.00,,,0.00,VWS V14.01,2013-02-27 20:54:00,
2013-02-27 12:59:00,44.2,20.3,26.81,North,0,0.0,0.0,38,0.00,,,0.00,VWS V14.01,2013-02-27 20:59:00,
2013-02-27 13:04:00,41.4,18.3,26.81,North,0,0.0,0.0,39,0.00,,,0.00,VWS V14.01,2013-02-27 21:04:00,
2013-02-27 13:09:00,41.4,18.3,26.81,North,0,0.0,0.0,39,0.00,,,0.00,VWS V14.01,2013-02-27 21:09:00,
2013-02-27 13:14:00,41.4,18.3,26.81,North,0,0.0,0.0,39,0.00,,,0.00,VWS V14.01,2013-02-27 21:14:00,
2013-02-27 13:19:00,41.9,19.4,26.81,North,0,0.0,0.0,40,0.00,,,0.00,VWS V14.01,2013-02-27 21:19:00,
2013-02-27 13:24:00,41.5,19.6,26.81,North,0,0.0,0.0,41,0.00,,,0.00,VWS V14.01,2013-02-27 21:24:00,
2013-02-27 13:29:00,41.5,19.6,26.81,North,0,0.0,0.0,41,0.00,,,0.00,VWS V14.01,2013-02-27 21:29:00,
2013-02-27 13:34:00,41.5,19.6,26.81,North,0,0.0,0.0,41,0.00,,,0.00,VWS V14.01,2013-02-27 21:34:00,
2013-02-27 13:39:00,45.3,21.8,26.81,North,0,0.0,0.0,39,0.00,,,0.00,VWS V14.01,2013-02-27 21:39:00,
2013-02-27 13:44:00,46.0,21.9,26.81,North,0,0.0,0.0,38,0.00,,,0.00,VWS V14.01,2013-02-27 21:44:00,
2013-02-27 13:49:00,46.0,21.9,26.81,North,0,0.0,0.0,38,0.00,,,0.00,VWS V14.01,2013-02-27 21:49:00,
2013-02-27 13:54:00,46.0,21.9,26.81,North,0,0.0,0.0,38,0.00,,,0.00,VWS V14.01,2013-02-27 21:54:00,
2013-02-27 13:59:00,46.0,21.9,26.81,North,0,0.0,0.0,38,0.00,,,0.00,VWS V14.01,2013-02-27 21:59:00,
2013-02-27 14:04:00,46.0,21.9,26.81,North,0,0.0,0.0,38,0.00,,,0.00,VWS V14.01,2013-02-27 22:04:00,
2013-02-27 14:09:00,44.8,20.7,26.81,North,0,0.0,0.0,38,0.00,,,0.00,VWS V14.01,2013-02-27 22:09:00,
2013-02-27 14:14:00,44.6,21.2,26.81,North,0,0.0,0.0,39,0.00,,,0.00,VWS V14.01,2013-02-27 22:14:00,
2013-02-27 14:19:00,44.1,20.7,26.81,North,0,0.0,0.0,39,0.00,,,0.00,VWS V14.01,2013-02-27 22:19:00,
2013-02-27 14:24:00,44.1,20.7,26.81,North,0,0.0,0.0,39,0.00,,,0.00,VWS V14.01,2013-02-27 22:24:00,
2013-02-27 14:29:00,42.1,18.9,26.81,North,0,0.0,0.0,39,0.00,,,0.00,VWS V14.01,2013-02-27 22:29:00,
2013-02-27 14:34:00,42.1,18.9,26.81,North,0,0.0,0.0,39,0.00,,,0.00,VWS V14.01,2013-02-27 22:34:00,
2013-02-27 14:39:00,40.6,18.8,26.81,North,0,0.0,0.0,41,0.00,,,0.00,VWS V14.01,2013-02-27 22:39:00,
2013-02-27 14:44:00,40.1,19.4,26.81,North,0,0.0,0.0,43,0.00,,,0.00,VWS V14.01,2013-02-27 22:44:00,
2013-02-27 14:49:00,40.1,19.4,26.81,North,0,0.0,0.0,43,0.00,,,0.00,VWS V14.01,2013-02-27 22:49:00,
2013-02-27 14:54:00,40.5,20.3,26.81,North,0,0.0,0.0,44,0.00,,,0.00,VWS V14.01,2013-02-27 22:54:00,
2013-02-27 14:59:00,40.6,20.5,26.81,North,0,0.0,0.0,44,0.00,,,0.00,VWS V14.01,2013-02-27 22:59:00,
2013-02-27 15:04:00,40.6,20.5,26.81,North,0,0.0,0.0,44,0.00,,,0.00,VWS V14.01,2013-02-27 23:04:00,
2013-02-27 15:09:00,40.6,20.5,26.81,North,0,0.0,0.0,44,0.00,,,0.00,VWS V14.01,2013-02-27 23:09:00,
2013-02-27 15:14:00,40.1,19.4,26.81,North,0,0.0,0.0,43,0.00,,,0.00,VWS V14.01,2013-02-27 23:14:00,
2013-02-27 15:19:00,40.1,19.4,26.81,North,0,0.0,0.0,43,0.00,,,0.00,VWS V14.01,2013-02-27 23:19:00,
2013-02-27 15:24:00,41.2,19.9,26.81,North,0,0.0,0.0,42,0.00,,,0.00,VWS V14.01,2013-02-27 23:24:00,
2013-02-27 15:29:00,41.2,19.9,26.81,North,0,0.0,0.0,42,0.00,,,0.00,VWS V14.01,2013-02-27 23:29:00,
2013-02-27 15:34:00,41.4,20.0,26.81,North,0,0.0,0.0,42,0.00,,,0.00,VWS V14.01,2013-02-27 23:34:00,
2013-02-27 15:39:00,41.4,20.0,26.84,North,0,0.0,0.0,42,0.00,,,0.00,VWS V14.01,2013-02-27 23:39:00,
2013-02-27 15:44:00,39.2,18.6,26.84,North,0,0.0,0.0,43,0.00,,,0.00,VWS V14.01,2013-02-27 23:44:00,
2013-02-27 15:49:00,39.2,19.1,26.84,North,0,0.0,0.0,44,0.00,,,0.00,VWS V14.01,2013-02-27 23:49:00,
2013-02-27 15:54:00,39.2,19.1,26.84,North,0,0.0,0.0,44,0.00,,,0.00,VWS V14.01,2013-02-27 23:54:00,
2013-02-27 15:59:00,39.2,19.1,26.84,North,0,0.0,0.0,44,0.00,,,0.00,VWS V14.01,2013-02-27 23:59:00,
2013-02-27 16:04:00,38.5,19.0,26.84,North,0,0.0,0.0,45,0.00,,,0.00,VWS V14.01,2013-02-28 00:04:00,
2013-02-27 16:09:00,38.1,18.7,26.84,North,0,0.0,0.0,45,0.00,,,0.00,VWS V14.01,2013-02-28 00:09:00,
2013-02-27 16:14:00,38.1,18.7,26.84,North,0,0.0,0.0,45,0.00,,,0.00,VWS V14.01,2013-02-28 00:14:00,
2013-02-27 16:19:00,38.1,18.7,26.84,North,0,0.0,0.0,45,0.00,,,0.00,VWS V14.01,2013-02-28 00:19:00,
2013-02-27 16:24:00,38.1,18.7,26.84,North,0,0.0,0.0,45,0.00,,,0.00,VWS V14.01,2013-02-28 00:24:00,
2013-02-27 16:29:00,38.1,18.7,26.84,North,0,0.0,0.0,45,0.00,,,0.00,VWS V14.01,2013-02-28 00:29:00,
2013-02-27 16:34:00,37.6,18.2,26.84,North,0,0.0,0.0,45,0.00,,,0.00,VWS V14.01,2013-02-28 00:34:00,
2013-02-27 16:39:00,37.6,18.7,26.84,North,0,0.0,0.0,46,0.00,,,0.00,VWS V14.01,2013-02-28 00:39:00,
2013-02-27 16:44:00,37.6,18.7,26.84,North,0,0.0,0.0,46,0.00,,,0.00,VWS V14.01,2013-02-28 00:44:00,
2013-02-27 16:49:00,37.0,18.7,26.84,North,0,0.0,0.0,47,0.00,,,0.00,VWS V14.01,2013-02-28 00:49:00,
2013-02-27 16:54:00,37.0,18.7,26.84,North,0,0.0,0.0,47,0.00,,,0.00,VWS V14.01,2013-02-28 00:54:00,
2013-02-27 16:59:00,35.8,18.5,26.84,North,0,0.0,0.0,49,0.00,,,0.00,VWS V14.01,2013-02-28 00:59:00,
2013-02-27 17:04:00,35.8,18.5,26.84,North,0,0.0,0.0,49,0.00,,,0.00,VWS V14.01,2013-02-28 01:04:00,
2013-02-27 17:09:00,35.8,18.5,26.84,North,0,0.0,0.0,49,0.00,,,0.00,VWS V14.01,2013-02-28 01:09:00,
2013-02-27 17:14:00,35.8,18.5,26.84,North,0,0.0,0.0,49,0.00,,,0.00,VWS V14.01,2013-02-28 01:14:00,
2013-02-27 17:19:00,32.4,19.6,26.84,North,0,0.0,0.0,59,0.00,,,0.00,VWS V14.01,2013-02-28 01:19:00,
2013-02-27 17:24:00,32.0,19.7,26.84,North,0,0.0,0.0,60,0.00,,,0.00,VWS V14.01,2013-02-28 01:24:00,
2013-02-27 17:29:00,32.0,19.7,26.84,North,0,0.0,0.0,60,0.00,,,0.00,VWS V14.01,2013-02-28 01:29:00,
2013-02-27 17:34:00,32.0,19.7,26.84,North,0,0.0,0.0,60,0.00,,,0.00,VWS V14.01,2013-02-28 01:34:00,
2013-02-27 17:39:00,32.0,19.7,26.84,North,0,0.0,0.0,60,0.00,,,0.00,VWS V14.01,2013-02-28 01:39:00,
2013-02-27 17:44:00,31.8,19.1,26.84,North,0,0.0,0.0,59,0.00,,,0.00,VWS V14.01,2013-02-28 01:44:00,
2013-02-27 17:49:00,31.3,17.8,26.84,North,0,0.0,0.0,57,0.00,,,0.00,VWS V14.01,2013-02-28 01:49:00,
2013-02-27 17:54:00,30.4,16.2,26.84,North,0,0.0,0.0,55,0.00,,,0.00,VWS V14.01,2013-02-28 01:54:00,
2013-02-27 17:59:00,30.4,16.2,26.84,North,0,0.0,0.0,55,0.00,,,0.00,VWS V14.01,2013-02-28 01:59:00,
2013-02-27 18:04:00,28.6,14.9,26.84,North,0,0.0,0.0,56,0.00,,,0.00,VWS V14.01,2013-02-28 02:04:00,
2013-02-27 18:09:00,27.7,15.2,26.84,North,0,0.0,0.0,59,0.00,,,0.00,VWS V14.01,2013-02-28 02:09:00,
2013-02-27 18:14:00,27.7,15.2,26.84,North,0,0.0,0.0,59,0.00,,,0.00,VWS V14.01,2013-02-28 02:14:00,
2013-02-27 18:19:00,27.7,15.2,26.84,North,0,0.0,0.0,59,0.00,,,0.00,VWS V14.01,2013-02-28 02:19:00,
2013-02-27 18:24:00,27.7,15.2,26.84,North,0,0.0,0.0,59,0.00,,,0.00,VWS V14.01,2013-02-28 02:24:00,
2013-02-27 18:29:00,27.7,15.6,26.84,North,0,0.0,0.0,60,0.00,,,0.00,VWS V14.01,2013-02-28 02:29:00,
2013-02-27 18:34:00,27.7,15.6,26.84,North,0,0.0,0.0,60,0.00,,,0.00,VWS V14.01,2013-02-28 02:34:00,
2013-02-27 18:39:00,27.9,19.0,26.84,North,0,0.0,0.0,69,0.00,,,0.00,VWS V14.01,2013-02-28 02:39:00,
2013-02-27 18:44:00,27.9,19.0,26.84,North,0,0.0,0.0,69,0.00,,,0.00,VWS V14.01,2013-02-28 02:44:00,
2013-02-27 18:49:00,27.9,19.0,26.84,North,0,0.0,0.0,69,0.00,,,0.00,VWS V14.01,2013-02-28 02:49:00,
2013-02-27 18:54:00,28.0,19.2,26.84,North,0,0.0,0.0,69,0.00,,,0.00,VWS V14.01,2013-02-28 02:54:00,
2013-02-27 18:59:00,28.2,19.4,26.84,North,0,0.0,0.0,69,0.00,,,0.00,VWS V14.01,2013-02-28 02:59:00,
2013-02-27 19:04:00,28.2,19.4,26.84,North,0,0.0,0.0,69,0.00,,,0.00,VWS V14.01,2013-02-28 03:04:00,
2013-02-27 19:09:00,27.9,17.6,26.84,North,0,0.0,0.0,65,0.00,,,0.00,VWS V14.01,2013-02-28 03:09:00,
2013-02-27 19:14:00,26.1,15.9,26.84,North,0,0.0,0.0,65,0.00,,,0.00,VWS V14.01,2013-02-28 03:14:00,
2013-02-27 19:19:00,25.9,17.1,26.84,North,0,0.0,0.0,69,0.00,,,0.00,VWS V14.01,2013-02-28 03:19:00,
2013-02-27 19:24:00,25.9,17.1,26.84,North,0,0.0,0.0,69,0.00,,,0.00,VWS V14.01,2013-02-28 03:24:00,
2013-02-27 19:29:00,25.9,17.1,26.84,North,0,0.0,0.0,69,0.00,,,0.00,VWS V14.01,2013-02-28 03:29:00,
2013-02-27 19:34:00,26.8,19.9,26.84,North,0,0.0,0.0,75,0.00,,,0.00,VWS V14.01,2013-02-28 03:34:00,
2013-02-27 19:39:00,27.7,20.5,26.84,North,0,0.0,0.0,74,0.00,,,0.00,VWS V14.01,2013-02-28 03:39:00,
2013-02-27 19:44:00,28.0,20.2,26.84,North,0,0.0,0.0,72,0.00,,,0.00,VWS V14.01,2013-02-28 03:44:00,
2013-02-27 19:49:00,28.0,20.2,26.87,North,0,0.0,0.0,72,0.00,,,0.00,VWS V14.01,2013-02-28 03:49:00,
2013-02-27 19:54:00,27.9,19.0,26.87,North,0,0.0,0.0,69,0.00,,,0.00,VWS V14.01,2013-02-28 03:54:00,
2013-02-27 19:59:00,27.9,19.0,26.87,North,0,0.0,0.0,69,0.00,,,0.00,VWS V14.01,2013-02-28 03:59:00,
2013-02-27 20:04:00,27.3,18.8,26.84,North,0,0.0,0.0,70,0.00,,,0.00,VWS V14.01,2013-02-28 04:04:00,
2013-02-27 20:09:00,27.3,18.8,26.84,North,0,0.0,0.0,70,0.00,,,0.00,VWS V14.01,2013-02-28 04:09:00,
2013-02-27 20:14:00,27.3,18.8,26.84,North,0,0.0,0.0,70,0.00,,,0.00,VWS V14.01,2013-02-28 04:14:00,
2013-02-27 20:19:00,27.3,18.8,26.84,North,0,0.0,0.0,70,0.00,,,0.00,VWS V14.01,2013-02-28 04:19:00,
2013-02-27 20:24:00,28.4,19.5,26.84,North,0,0.0,0.0,69,0.00,,,0.00,VWS V14.01,2013-02-28 04:24:00,
2013-02-27 20:29:00,27.1,17.3,26.84,North,0,0.0,0.0,66,0.00,,,0.00,VWS V14.01,2013-02-28 04:29:00,
2013-02-27 20:34:00,26.6,16.8,26.84,North,0,0.0,0.0,66,0.00,,,0.00,VWS V14.01,2013-02-28 04:34:00,
2013-02-27 20:39:00,26.6,16.8,26.84,North,0,0.0,0.0,66,0.00,,,0.00,VWS V14.01,2013-02-28 04:39:00,
2013-02-27 20:44:00,26.6,16.8,26.84,North,0,0.0,0.0,66,0.00,,,0.00,VWS V14.01,2013-02-28 04:44:00,
2013-02-27 20:49:00,26.6,16.8,26.84,North,0,0.0,0.0,66,0.00,,,0.00,VWS V14.01,2013-02-28 04:49:00,
2013-02-27 20:54:00,24.8,16.8,26.84,North,0,0.0,0.0,71,0.00,,,0.00,VWS V14.01,2013-02-28 04:54:00,
2013-02-27 20:59:00,25.0,18.2,26.84,North,0,0.0,0.0,75,0.00,,,0.00,VWS V14.01,2013-02-28 04:59:00,
2013-02-27 21:00:00,25.0,18.2,26.84,North,0,0.0,0.0,75,0.00,,,0.00,VWS V14.01,2013-02-28 05:00:00,
2013-02-27 21:05:00,24.6,17.5,26.84,North,0,0.0,0.0,74,0.00,,,0.00,VWS V14.01,2013-02-28 05:05:00,
2013-02-27 21:10:00,24.6,17.5,26.84,North,0,0.0,0.0,74,0.00,,,0.00,VWS V14.01,2013-02-28 05:10:00,
2013-02-27 21:15:00,24.4,17.4,26.84,North,0,0.0,0.0,74,0.00,,,0.00,VWS V14.01,2013-02-28 05:15:00,
2013-02-27 21:20:00,24.4,17.4,26.84,North,0,0.0,0.0,74,0.00,,,0.00,VWS V14.01,2013-02-28 05:20:00,
2013-02-27 21:25:00,24.4,17.4,26.84,North,0,0.0,0.0,74,0.00,,,0.00,VWS V14.01,2013-02-28 05:25:00,
2013-02-27 21:30:00,24.4,17.4,26.84,North,0,0.0,0.0,74,0.00,,,0.00,VWS V14.01,2013-02-28 05:30:00,
2013-02-27 21:35:00,23.9,16.8,26.84,North,0,0.0,0.0,74,0.00,,,0.00,VWS V14.01,2013-02-28 05:35:00,
2013-02-27 21:40:00,23.9,16.8,26.84,North,0,0.0,0.0,74,0.00,,,0.00,VWS V14.01,2013-02-28 05:40:00,
2013-02-27 21:45:00,23.9,16.8,26.84,North,0,0.0,0.0,74,0.00,,,0.00,VWS V14.01,2013-02-28 05:45:00,
2013-02-27 21:50:00,23.9,16.8,26.84,North,0,0.0,0.0,74,0.00,,,0.00,VWS V14.01,2013-02-28 05:50:00,
2013-02-27 21:55:00,23.9,16.8,26.84,North,0,0.0,0.0,74,0.00,,,0.00,VWS V14.01,2013-02-28 05:55:00,
2013-02-27 22:00:00,26.1,19.9,26.84,North,0,0.0,0.0,77,0.00,,,0.00,VWS V14.01,2013-02-28 06:00:00,
2013-02-27 22:05:00,26.1,19.9,26.84,North,0,0.0,0.0,77,0.00,,,0.00,VWS V14.01,2013-02-28 06:05:00,
2013-02-27 22:10:00,26.2,19.7,26.84,North,0,0.0,0.0,76,0.00,,,0.00,VWS V14.01,2013-02-28 06:10:00,
2013-02-27 22:15:00,26.2,19.7,26.84,North,0,0.0,0.0,76,0.00,,,0.00,VWS V14.01,2013-02-28 06:15:00,
2013-02-27 22:20:00,27.0,20.4,26.87,North,0,0.0,0.0,76,0.00,,,0.00,VWS V14.01,2013-02-28 06:20:00,
2013-02-27 22:25:00,27.3,20.8,26.84,North,0,0.0,0.0,76,0.00,,,0.00,VWS V14.01,2013-02-28 06:25:00,
2013-02-27 22:30:00,27.3,20.8,26.84,North,0,0.0,0.0,76,0.00,,,0.00,VWS V14.01,2013-02-28 06:30:00,
2013-02-27 22:35:00,27.3,20.8,26.84,North,0,0.0,0.0,76,0.00,,,0.00,VWS V14.01,2013-02-28 06:35:00,
2013-02-27 22:40:00,27.1,20.3,26.84,North,0,0.0,0.0,75,0.00,,,0.00,VWS V14.01,2013-02-28 06:40:00,
2013-02-27 22:45:00,27.1,20.3,26.84,North,0,0.0,0.0,75,0.00,,,0.00,VWS V14.01,2013-02-28 06:45:00,
2013-02-27 22:50:00,27.5,20.9,26.84,North,0,0.0,0.0,76,0.00,,,0.00,VWS V14.01,2013-02-28 06:50:00,
2013-02-27 22:55:00,27.5,20.9,26.84,North,0,0.0,0.0,76,0.00,,,0.00,VWS V14.01,2013-02-28 06:55:00,
2013-02-27 23:00:00,27.5,20.9,26.84,North,0,0.0,0.0,76,0.00,,,0.00,VWS V14.01,2013-02-28 07:00:00,
2013-02-27 23:05:00,27.5,20.9,26.84,North,0,0.0,0.0,76,0.00,,,0.00,VWS V14.01,2013-02-28 07:05:00,
2013-02-27 23:10:00,27.9,21.3,26.87,North,0,0.0,0.0,76,0.00,,,0.00,VWS V14.01,2013-02-28 07:10:00,
2013-02-27 23:15:00,27.9,21.6,26.87,North,0,0.0,0.0,77,0.00,,,0.00,VWS V14.01,2013-02-28 07:15:00,
2013-02-27 23:20:00,27.9,21.6,26.87,North,0,0.0,0.0,77,0.00,,,0.00,VWS V14.01,2013-02-28 07:20:00,
2013-02-27 23:25:00,28.4,22.1,26.87,North,0,0.0,0.0,77,0.00,,,0.00,VWS V14.01,2013-02-28 07:25:00,
2013-02-27 23:30:00,28.4,22.1,26.87,North,0,0.0,0.0,77,0.00,,,0.00,VWS V14.01,2013-02-28 07:30:00,
2013-02-27 23:35:00,28.6,22.0,26.87,North,0,0.0,0.0,76,0.00,,,0.00,VWS V14.01,2013-02-28 07:35:00,
2013-02-27 23:40:00,28.6,22.0,26.87,North,0,0.0,0.0,76,0.00,,,0.00,VWS V14.01,2013-02-28 07:40:00,
2013-02-27 23:45:00,28.6,22.0,26.87,North,0,0.0,0.0,76,0.00,,,0.00,VWS V14.01,2013-02-28 07:45:00,
2013-02-27 23:50:00,28.6,22.0,26.87,North,0,0.0,0.0,76,0.00,,,0.00,VWS V14.01,2013-02-28 07:50:00,
2013-02-27 23:55:00,28.6,22.0,26.84,North,0,0.0,0.0,76,0.00,,,0.00,VWS V14.01,2013-02-28 07:55:00,